Zurück zum Katalog

SZ-23

AktivWissenschaftVLEO
NORAD 69180·PAYLOAD·🇨🇳 China

Gestartet May 24, 2026 von Jiuquan Satellite Launch Center

Loading…

Nächste Überflüge (nächste 24 Stunden)

TLE

AktuellSource: Space-Track

Epoche: Sep 14, 2026, 14:01 UTC

1 69180U 26113A   26257.58463244  .00018605  00000-0  22780-3 0  9997
2 69180  41.4676 139.2408 0002663 278.8217  81.2320 15.59928303307554

Verfolge SZ-23 in Echtzeit mit AllMySat

Download on the App Store